Regional Weather Roundup
Issued by NWS

Home | Current Version | Previous Version | Text Only | Print | Product List | Glossary Off
Versions: 1 2 3 4 5 6 7 8 9 10 11 12 13 14 15 16 17 18 19 20 21 22 23 24 25 26 27 28 29 30 31 32 33 34 35 36 37 38 39 40 41 42 43 44 45 46 47 48 49 50

477
ASUS43 KFSD 220302
RWRSD

WEATHER ROUNDUP FOR SOUTH DAKOTA
NATIONAL WEATHER SERVICE SIOUX FALLS SD
900 PM CST TUE NOV 21 2017

NOTE: "FAIR" INDICATES FEW OR NO CLOUDS BELOW 12,000 FEET WITH NO
SIGNIFICANT WEATHER AND/OR OBSTRUCTIONS TO VISIBILITY.


SDZ001>005-009-010-012>017-220400-
NORTHWEST AND NORTH CENTRAL SOUTH DAKOTA

CITY           SKY/WX    TMP DP  RH WIND       PRES   REMARKS
BUFFALO          N/A     21   9  59 SE6       30.13F WCI  13
FAITH            N/A     16   4  59 SE12      30.24F WCI   3
MOBRIDGE       CLOUDY    11   3  70 VRB5      30.29F WCI   3
$$

SDZ012>016-024>037-041>051-057-063-072>074-220400-
SOUTHWEST AND SOUTH CENTRAL SOUTH DAKOTA

CITY           SKY/WX    TMP DP  RH WIND       PRES   REMARKS
RAPID CTY ARPT CLOUDY    20  15  81 S6        30.22F WCI  12
PIERRE         CLOUDY    10   4  76 N3        30.34S
CUSTER         CLOUDY    31  22  69 SW6       30.17S WCI  25
ELLSWORTH AFB  CLOUDY    24  19  81 S9        30.20F WCI  14
PHILIP         CLEAR     17  12  80 E3        30.30F
PINE RIDGE     CLOUDY    19  16  88 CALM      30.26R
SPEARFISH      FAIR      25  23  93 CALM      30.16F
WINNER         FAIR      13   7  77 SW3       30.34F
$$

SDZ004>011-016>023-039-040-220400-
NORTHEAST SOUTH DAKOTA

CITY           SKY/WX    TMP DP  RH WIND       PRES   REMARKS
ABERDEEN       CLOUDY     5   2  87 SW7       30.36  WCI  -7
WATERTOWN      CLOUDY    15   7  70 NW8       30.30F WCI   4
BROOKINGS      CLOUDY    14   7  73 NW3       30.33F
SISSETON         N/A     13   7  77 W6        30.34F WCI   4
$$

SDZ017-020-022-023-036>040-048>070-220400-
SOUTHEAST SOUTH DAKOTA

CITY           SKY/WX    TMP DP  RH WIND       PRES   REMARKS
SIOUX FALLS    CLOUDY    17   8  67 NW5       30.36F WCI  10
HURON          CLOUDY    11   6  81 W8        30.37F WCI  -1
CHAMBERLAIN    CLOUDY    14   9  80 CALM      30.36S
MITCHELL       CLEAR     17   7  64 SW3       30.39F
YANKTON        CLOUDY    17  10  74 W7        30.40R WCI   8
$$

ABBREVIATIONS USED IN REMARKS
   TC - TEMPERATURE IN CELSIUS
  WCI - WIND CHILL INDEX
   HX - HEAT INDEX
  VSB - VISIBILITY





USA.gov is the U.S. government's official web portal to all federal, state and local government web resources and services.